La Grande, OR

9:03 AM PDT on October 17, 2019 (GMT -0700)
La Grande-Union County

Weather History for KLGD - August, 2019

Change the Weather History Date:

Thursday, August 29, 2019

  Actual Average Record
Temperature  
Mean Temperature 74 °F -  
Max Temperature 86 °F 79 °F 96 °F (1967)
Min Temperature 63 °F 46 °F 39 °F (1969)
Cooling Degree Days 10    
Growing Degree Days 24 (Base 50)    
Moisture  
Dew Point 50 °F    
Average Humidity 46    
Maximum Humidity 65    
Minimum Humidity 29    
Precipitation  
Precipitation 0.00 in - - ()
Sea Level Pressure  
Sea Level Pressure 30.40 in    
Wind  
Wind Speed 5 mph (NNW)    
Max Wind Speed 14 mph    
Max Gust Speed -    
Visibility 10 miles    
Events Rain    
Averages and records for this station are not official NWS values.
T = Trace of Precipitation, MM = Missing Value Source: NWS Daily Summary

Daily Weather History Graph

Daily Weather History Graph

Search for Another Location

Airport or City:

Astronomy

Aug. 29, 2019 Rise Set
Actual Time 6:09 AM PDT 7:35 PM PDT
Civil Twilight 5:39 AM PDT 8:05 PM PDT
Nautical Twilight 5:01 AM PDT 8:42 PM PDT
Astronomical Twilight 4:22 AM PDT 9:22 PM PDT
Moon 4:55 AM PDT (8/29) 7:38 PM PDT (8/29)
Length of Visible Light 14h 26m
Length of Day
13h 25m
Waning Crescent, 1% of the Moon is Illuminated
Aug 29
Waning Crescent
Aug 30
New
Sep 5
First Quarter
Sep 13
Full
Sep 21
Last Quarter

Hourly Weather History & Observations

Time (PDT) Temp. Heat Index Dew Point Humidity Pressure Visibility Wind Dir Wind Speed Gust Speed Precip Events Conditions
12:56 AM 66.0 °F - 45.0 °F 47% 30.37 in 10.0 mi ENE 4.6 mph - N/A   Clear
1:56 AM 64.0 °F - 45.0 °F 50% 30.37 in 10.0 mi Calm Calm - N/A   Clear
2:56 AM 66.0 °F - 46.0 °F 48% 30.40 in 10.0 mi Calm Calm - N/A   Scattered Clouds
3:56 AM 63.0 °F - 48.0 °F 58% 30.38 in 10.0 mi NW 3.5 mph - N/A   Mostly Cloudy
4:56 AM 64.0 °F - 46.9 °F 54% 30.38 in 10.0 mi Calm Calm - N/A   Mostly Cloudy
5:56 AM 63.0 °F - 48.0 °F 58% 30.39 in 10.0 mi North - - 0.00 in Rain Light Rain
6:56 AM 64.9 °F - 46.9 °F 52% 30.41 in 10.0 mi North - - 0.00 in   Clear
7:56 AM 66.0 °F - 48.9 °F 54% 30.41 in 10.0 mi North - - N/A   Clear
8:56 AM 70.0 °F - 50.0 °F 49% 30.42 in 10.0 mi North - - N/A   Clear
9:56 AM 81.0 °F - 46.0 °F 29% 30.42 in 10.0 mi North 4.6 mph - N/A   Clear
10:56 AM 82.0 °F - 46.9 °F 29% 30.41 in 10.0 mi NW 8.1 mph - N/A   Clear
11:56 AM 82.9 °F - 50.0 °F 32% 30.40 in 10.0 mi North 6.9 mph - N/A   Clear
12:56 PM 84.9 °F - 48.9 °F 29% 30.41 in 10.0 mi NW 3.5 mph - N/A   Partly Cloudy
1:56 PM 84.9 °F - 51.1 °F 31% 30.41 in 10.0 mi WNW 13.8 mph - 0.00 in   Clear
2:56 PM 84.9 °F - 50.0 °F 30% 30.40 in 10.0 mi NNW 11.5 mph - N/A   Clear
3:56 PM 86.0 °F - 51.1 °F 30% 30.39 in 10.0 mi North 13.8 mph - N/A   Clear
4:56 PM 84.0 °F 83.0 °F 55.9 °F 38% 30.39 in 10.0 mi NW 12.7 mph - N/A   Clear
5:56 PM 82.0 °F 81.6 °F 55.9 °F 41% 30.39 in 10.0 mi NW 11.5 mph - N/A   Partly Cloudy
6:56 PM 78.1 °F - 55.0 °F 45% 30.39 in 10.0 mi NW 8.1 mph - N/A   Clear
8:56 PM 69.1 °F - 54.0 °F 58% 30.41 in 10.0 mi Calm Calm - N/A   Clear
9:56 PM 69.1 °F - 54.0 °F 58% 30.42 in 9.0 mi South 3.5 mph - N/A   Clear
10:56 PM 66.0 °F - 54.0 °F 65% 30.41 in 10.0 mi East 3.5 mph - N/A   Clear
11:56 PM 66.0 °F - 54.0 °F 65% 30.41 in 10.0 mi Calm Calm - N/A   Clear